[[{"header":{"parameterUnit":"m.s-1","parameterCategory":2,"la1":30.2991,"la2":30.254,"lo1":-89.0895,"lo2":-89.0444,"dy":0.0017,"dx":0.0017,"nx":28,"ny":28,"refTime":"2024-07-23T03:00:00:Z","depth":"0","parameterNumber":2,"parameterNumberName":"U-component_of_CURRENTS"},"data":[0,0,0,0,0,0,0,0,0,0,0,0,0,0,0,0,0,0,0,0,0,0,0,0,0,0,0,0,0,0,0,0,0,0,0,0,0,0,0,0,0,0,0,0,0,0,0,0,0,0,0,0,0,0,0,0,0,0,0.2868,0.2867,0,0.2839,0.2839,0.2838,0.2813,0.2812,0.2812,0.2812,0.2779,0.2779,0.2778,0,0,0,0,0,0,0,0,0,0,0,0,0,0.2922,0.2921,0.2868,0.2867,0.2867,0.2839,0.2839,0.2838,0.2813,0.2812,0.2812,0.2812,0.2779,0.2779,0.2778,0,0,0,0,0,0,0,0,0,0,0,0,0,0.2896,0.2921,0.2868,0.2851,0.2849,0.2839,0.2839,0.2838,0.2813,0.2812,0.2812,0.2811,0.278,0.2779,0.2778,0.2782,0,0,0.2775,0.2775,0,0,0,0,0,0,0,0,0.2898,0.2894,0.2854,0.2852,0.285,0.2829,0.2846,0.2819,0.2813,0.2827,0.2812,0.2811,0.2796,0.2794,0.2789,0.2781,0.2779,0.2775,0.2775,0.2774,0.2774,0,0,0,0,0,0,0,0.29,0.2896,0.2857,0.2853,0.2851,0.2852,0.2848,0.2841,0.2814,0.2825,0.2823,0.282,0.2795,0.279,0.2788,0.2779,0.2775,0.2775,0.2774,0.2774,0.2869,0.2872,0,0,0,0,0,0,0.2902,0.2897,0.2857,0.2856,0.2873,0.2851,0.2847,0.2836,0.2814,0.281,0.2821,0.2819,0.2792,0.2789,0.2787,0.2889,0.2774,0.2774,0.2773,0.2866,0.2869,0.2873,0,0,0,0,0,0,0.2903,0.2899,0.2859,0.2876,0.2871,0.2851,0.284,0.2836,0.2835,0.2811,0.2807,0.2824,0.2792,0.2788,0.2809,0.2883,0.2773,0.2772,0.2862,0.2867,0.2871,0.3028,0,0,0,0,0,0,0.2905,0.2899,0.2896,0.2876,0.287,0.2868,0.284,0.2836,0.2834,0.2832,0.2813,0.2809,0.2791,0.2811,0.2808,0.288,0.2772,0.2858,0.2864,0.287,0.3019,0.3038,0.3054,0,0,0,0,0,0.2907,0.2911,0.2896,0.2891,0.2865,0.2869,0.2868,0.2851,0.2835,0.2847,0.2843,0.281,0.2846,0.2812,0.2808,0.2882,0.2855,0.2863,0.2869,0.3012,0.3034,0.3053,0,0,0,0,0,0,0.2925,0.2908,0.2891,0.2886,0.2883,0.2865,0.2877,0.2858,0.2862,0.2866,0.2834,0.2832,0.2891,0.2855,0.2819,0.2927,0.2851,0.2857,0.2961,0.2981,0.2998,0.3025,0.2771,0,0,0,0,0,0.2929,0.2934,0.2912,0.2912,0.2914,0.2895,0.2894,0.2886,0.2883,0.2883,0.2873,0.2878,0.2916,0.292,0.2937,0.2975,0.2985,0.3024,0.3041,0.3056,0.3077,0.3193,0.3223,0.2895,0.2895,0.2895,0,0,0.2938,0.2928,0.293,0.2918,0.2916,0.2952,0.2895,0.2908,0.2951,0.2881,0.2938,0.2937,0.2941,0.3009,0.3031,0.2985,0.3148,0.3065,0.3077,0.3091,0.3204,0.3236,0.3264,0.29,0.2899,0.2898,0,0,0.2981,0.2951,0.2982,0.2991,0.2994,0.2991,0.2999,0.2992,0.3005,0.3044,0.3037,0.3077,0.309,0.3132,0.3151,0.3266,0.3243,0.3268,0.3368,0.3481,0.3509,0.3535,0.3562,0.3588,0.3267,0.3268,0.3268,0,0.2985,0.3025,0.2993,0.3035,0.3059,0.3019,0.3075,0.3089,0.3094,0.3125,0.3084,0.3168,0.3165,0.3282,0.3332,0.331,0.3339,0.329,0.3507,0.3532,0.3555,0.3577,0.3604,0.3276,0.3275,0.3274,0.3273,0,0.3059,0.3101,0.3125,0.317,0.3189,0.3229,0.3244,0.3271,0.3269,0.3285,0.3374,0.3371,0.3413,0.3439,0.3422,0.3591,0.3545,0.3525,0.3458,0.3598,0.361,0.3636,0.3288,0.3285,0.3283,0.328,0,0,0.3033,0.3155,0.3163,0.322,0.3267,0.3286,0.3375,0.344,0.3495,0.3514,0.3601,0.3675,0.3646,0.3667,0.3653,0.3751,0.393,0.3716,0.3718,0.3748,0.4139,0.3873,0.3874,0.3964,0.397,0.3974,0.4071,0,0.31,0.323,0.3265,0.3386,0.3455,0.3467,0.3545,0.3598,0.3629,0.3699,0.3731,0.3798,0.3741,0.3761,0.3859,0.3923,0.4011,0.3903,0.3994,0.3995,0.3749,0.3901,0.3616,0.366,0.4096,0.41,0.4103,0,0.3151,0.3241,0.3385,0.3511,0.3535,0.3591,0.3689,0.3753,0.3849,0.3873,0.3939,0.3943,0.4072,0.3999,0.418,0.4117,0.4148,0.4184,0.4189,0.3907,0.3779,0.3596,0.3689,0.3568,0.4142,0.4139,0.4136,0,0.3156,0.331,0.3434,0.3477,0.3612,0.3665,0.3717,0.3806,0.3857,0.3982,0.4011,0.4145,0.4173,0.4298,0.4309,0.4289,0.4487,0.4457,0.424,0.4218,0.3973,0.3917,0.3962,0.4613,0.4613,0.4613,0.4612,0,0.3208,0.3296,0.3443,0.3509,0.3621,0.3689,0.3785,0.3854,0.3943,0.4001,0.4079,0.4123,0.4262,0.4341,0.4392,0.4361,0.4544,0.4288,0.4253,0.4008,0.3958,0.3831,0.3804,0.4616,0.4615,0.4615,0.4614,0,0.3202,0.3306,0.3444,0.3598,0.3634,0.3703,0.3795,0.3848,0.3933,0.4011,0.405,0.4152,0.4238,0.4314,0.4485,0.4393,0.4287,0.4388,0.403,0.395,0.357,0.356,0.3456,0.3379,0.4184,0.4178,0.4173,0,0.3218,0.3303,0.3481,0.3536,0.3604,0.3697,0.3742,0.3838,0.3882,0.3996,0.4025,0.4118,0.4142,0.4224,0.4135,0.4141,0.4093,0.3832,0.3735,0.3528,0.35,0.3416,0.3358,0.348,0.347,0.3461,0.3455,0,0.3254,0.3318,0.3428,0.3555,0.3618,0.3675,0.3744,0.3773,0.3863,0.39,0.3946,0.3986,0.3958,0.3793,0.3717,0.3687,0.3578,0.3653,0.3595,0.3075,0.2844,0.2755,0.3393,0.3382,0.3389,0.3394,0.3398,0.3401,0.3259,0.3334,0.3476,0.3563,0.3629,0.3646,0.362,0.3665,0.3692,0.3652,0.3792,0.3674,0.3488,0.3316,0.3274,0.2892,0.305,0.2735,0.2781,0.2745,0.2544,0.2951,0.2789,0.2793,0.2796,0.2799,0.2801,0,0.3289,0.3368,0.3463,0.3559,0.3565,0.3603,0.3603,0.3499,0.3439,0.3398,0.3371,0.3047,0.2806,0.2638,0.2246,0.206,0.2034,0.1987,0.188,0.1906,0.2396,0.2232,0.1751,0.1751,0.1751,0.1751,0.1751,0.1752,0.3308,0.3406,0.3445,0.3466,0.3483,0.337,0.3309,0.3158,0.3057,0.2756,0.2491,0.2419,0.2213,0.1846,0.1538,0.1495,0.1457,0.1258,0.1438,0.1821,0.1897,0.197,0.1811,0.1251,0.125,0.0808,0.0805,0.0802]},{"header":{"parameterUnit":"m.s-1","parameterCategory":2,"la1":30.2991,"la2":30.254,"lo1":-89.0895,"lo2":-89.0444,"dy":0.0017,"dx":0.0017,"nx":28,"ny":28,"refTime":"2024-07-23T03:00:00:Z","depth":"0","parameterNumber":3,"parameterNumberName":"V-component_of_CURRENTS"},"data":[0,0,0,0,0,0,0,0,0,0,0,0,0,0,0,0,0,0,0,0,0,0,0,0,0,0,0,0,0,0,0,0,0,0,0,0,0,0,0,0,0,0,0,0,0,0,0,0,0,0,0,0,0,0,0,0,0,0,0.0135,0.0135,0,0.0141,0.0141,0.0141,0.0131,0.0131,0.0131,0.013,0.011,0.011,0.011,0,0,0,0,0,0,0,0,0,0,0,0,0,0.0114,0.0114,0.0135,0.0135,0.0135,0.0141,0.0141,0.0141,0.0131,0.0131,0.0131,0.013,0.011,0.011,0.011,0,0,0,0,0,0,0,0,0,0,0,0,0,0.0121,0.0114,0.0135,0.0132,0.0131,0.0141,0.0141,0.0141,0.0131,0.0131,0.013,0.013,0.0111,0.011,0.011,0.0116,0,0,0.0109,0.0108,0,0,0,0,0,0,0,0,0.0121,0.0122,0.0132,0.0132,0.0132,0.0136,0.0126,0.0132,0.0131,0.0131,0.013,0.013,0.0117,0.0116,0.0118,0.0115,0.0114,0.0108,0.0108,0.0108,0.0108,0,0,0,0,0,0,0,0.012,0.0121,0.0137,0.0132,0.0132,0.0129,0.013,0.0127,0.0125,0.0131,0.013,0.0132,0.0117,0.0118,0.0117,0.0114,0.0108,0.0108,0.0108,0.0108,0.0111,0.0112,0,0,0,0,0,0,0.0121,0.0121,0.0137,0.0137,0.0126,0.013,0.0131,0.0134,0.0126,0.0124,0.0132,0.0132,0.0119,0.0118,0.0116,0.0109,0.0108,0.0108,0.0107,0.0111,0.0112,0.0112,0,0,0,0,0,0,0.0121,0.0123,0.0136,0.013,0.0131,0.0131,0.0135,0.0135,0.0137,0.0128,0.0125,0.0135,0.0119,0.0117,0.0113,0.0108,0.0107,0.0107,0.0111,0.0111,0.0112,0.0102,0,0,0,0,0,0,0.012,0.0123,0.0124,0.013,0.0132,0.0146,0.0136,0.0135,0.0139,0.0138,0.013,0.0127,0.0118,0.0114,0.0113,0.0108,0.0107,0.011,0.0111,0.0112,0.0102,0.0102,0.0103,0,0,0,0,0,0.012,0.0125,0.0124,0.0126,0.0134,0.0147,0.0148,0.0145,0.014,0.0145,0.0135,0.0127,0.0117,0.0114,0.0112,0.0107,0.011,0.0111,0.0112,0.0102,0.0102,0.0103,0,0,0,0,0,0,0.0115,0.0124,0.0124,0.0131,0.014,0.0145,0.015,0.0149,0.0146,0.0141,0.0131,0.0128,0.0123,0.0122,0.0118,0.0112,0.0113,0.0114,0.0106,0.0107,0.0107,0.0135,0.0106,0,0,0,0,0,0.0116,0.0121,0.0131,0.0137,0.0143,0.0147,0.0151,0.015,0.015,0.0148,0.0142,0.0135,0.0126,0.0121,0.0117,0.0115,0.0162,0.0112,0.0113,0.0113,0.0136,0.0235,0.0247,0.0114,0.0114,0.0114,0,0,0.0116,0.0121,0.0124,0.0136,0.0142,0.0145,0.0148,0.0157,0.0152,0.0146,0.0139,0.0136,0.0127,0.012,0.0118,0.0117,0.0166,0.0114,0.0113,0.0138,0.0237,0.0251,0.0263,0.0115,0.0115,0.0115,0,0,0.0119,0.0125,0.0131,0.0136,0.0146,0.0148,0.0152,0.016,0.0158,0.0156,0.0145,0.0153,0.0135,0.0135,0.0129,0.0135,0.0166,0.012,0.0141,0.0236,0.0248,0.026,0.0301,0.0316,0.0119,0.0118,0.0118,0,0.0118,0.012,0.0135,0.0139,0.0137,0.0148,0.0147,0.015,0.0153,0.0163,0.0153,0.0168,0.0149,0.016,0.0147,0.0137,0.0183,0.0135,0.0239,0.0251,0.0264,0.0303,0.0321,0.0118,0.0118,0.0118,0.0118,0,0.0126,0.012,0.0125,0.0128,0.0133,0.0134,0.014,0.0148,0.0149,0.0161,0.0185,0.0181,0.0202,0.0181,0.0155,0.0217,0.0216,0.0229,0.0241,0.0277,0.0315,0.0333,0.0118,0.0118,0.0118,0.0118,0,0,0.014,0.013,0.013,0.0128,0.0122,0.0137,0.0129,0.0145,0.0181,0.0181,0.0238,0.0204,0.0236,0.0234,0.0221,0.0281,0.037,0.0284,0.0289,0.0329,0.0554,0.0495,0.0509,0.0411,0.0415,0.0418,0.0532,0,0.0136,0.0136,0.0126,0.0122,0.0123,0.0123,0.0132,0.0152,0.018,0.0245,0.026,0.0311,0.0245,0.0278,0.032,0.0384,0.0425,0.0336,0.051,0.0515,0.0464,0.0531,0.052,0.0618,0.0551,0.0554,0.0556,0,0.0145,0.014,0.0132,0.0132,0.0137,0.0139,0.0184,0.0196,0.0271,0.0306,0.036,0.0398,0.0462,0.0428,0.0544,0.0496,0.0517,0.0554,0.056,0.0532,0.0492,0.0579,0.0654,0.0599,0.0585,0.0582,0.058,0,0.0162,0.0147,0.014,0.0135,0.0141,0.0149,0.0164,0.0222,0.0279,0.0377,0.0465,0.0524,0.0614,0.066,0.0689,0.0646,0.0842,0.0798,0.0753,0.0747,0.0787,0.0778,0.0842,0.0892,0.0892,0.0892,0.0891,0,0.0162,0.0161,0.0153,0.0153,0.0188,0.0178,0.0249,0.0282,0.0379,0.0495,0.0516,0.0647,0.0691,0.0789,0.0771,0.0826,0.0908,0.0784,0.0796,0.0774,0.0763,0.0754,0.0709,0.0896,0.0895,0.0894,0.0893,0,0.0188,0.0169,0.018,0.0184,0.0197,0.0235,0.0312,0.0388,0.0456,0.0622,0.0671,0.0799,0.0929,0.0937,0.1049,0.0957,0.0974,0.0984,0.0918,0.0919,0.0777,0.0731,0.0843,0.0836,0.096,0.096,0.0959,0,0.0201,0.0202,0.0227,0.0265,0.0269,0.0322,0.0384,0.0435,0.0535,0.0727,0.0837,0.0993,0.1136,0.1228,0.1137,0.1106,0.1033,0.1004,0.0904,0.0792,0.0753,0.0732,0.0716,0.0943,0.0942,0.0942,0.0941,0,0.024,0.0251,0.0272,0.0345,0.0402,0.0478,0.0565,0.0655,0.0755,0.0907,0.1134,0.1263,0.1326,0.1323,0.1213,0.1154,0.0959,0.099,0.0943,0.0803,0.073,0.0719,0.0796,0.0938,0.0938,0.0939,0.0939,0.0939,0.0296,0.0332,0.0373,0.0445,0.052,0.0638,0.073,0.0849,0.1028,0.1261,0.1346,0.1537,0.1427,0.1309,0.1214,0.0953,0.097,0.0845,0.0816,0.0819,0.0766,0.079,0.0892,0.0892,0.0893,0.0893,0.0893,0,0.0375,0.0411,0.0479,0.0574,0.0677,0.0697,0.0864,0.0976,0.1201,0.14,0.1595,0.161,0.1497,0.1298,0.0961,0.0802,0.0762,0.0718,0.071,0.0714,0.0811,0.076,0.0758,0.0758,0.0758,0.0758,0.0758,0.0758,0.0428,0.0501,0.0524,0.0691,0.077,0.0927,0.1033,0.1203,0.1359,0.1581,0.1663,0.172,0.1528,0.1051,0.0753,0.0687,0.0617,0.058,0.0565,0.0617,0.0627,0.0637,0.058,0.054,0.054,0.0496,0.0495,0.0495]}],[{"header":{"parameterUnit":"m.s-1","parameterCategory":2,"la1":30.2991,"la2":30.254,"lo1":-89.0895,"lo2":-89.0444,"dy":0.0017,"dx":0.0017,"nx":28,"ny":28,"refTime":"2024-07-23T03:00:00:Z","depth":"2","parameterNumber":2,"parameterNumberName":"U-component_of_CURRENTS"},"data":[0,0,0,0,0,0,0,0,0,0,0,0,0,0,0,0,0,0,0,0,0,0,0,0,0,0,0,0,0,0,0,0,0,0,0,0,0,0,0,0,0,0,0,0,0,0,0,0,0,0,0,0,0,0,0,0,0,0,0.1969,0.1969,0,0.1996,0.1996,0.1996,0.1992,0.1992,0.1992,0.1992,0.1983,0.1983,0.1983,0,0,0,0,0,0,0,0,0,0,0,0,0,0.1967,0.1966,0.1969,0.1969,0.197,0.1996,0.1996,0.1996,0.1992,0.1992,0.1992,0.1992,0.1983,0.1983,0.1983,0,0,0,0,0,0,0,0,0,0,0,0,0,0.1975,0.1966,0.1969,0.1973,0.1974,0.1996,0.1996,0.1996,0.1992,0.1992,0.1992,0.1992,0.1983,0.1983,0.1983,0.1988,0,0,0.1983,0.1983,0,0,0,0,0,0,0,0,0.1975,0.1975,0.1972,0.1973,0.1974,0.1993,0.1993,0.1993,0.1992,0.1982,0.1992,0.1991,0.1985,0.1985,0.1987,0.1988,0.1987,0.1983,0.1983,0.1983,0.1983,0,0,0,0,0,0,0,0.1974,0.1974,0.1977,0.1973,0.1974,0.1993,0.1993,0.1993,0.1982,0.1983,0.1984,0.1992,0.1985,0.1987,0.1987,0.1987,0.1983,0.1983,0.1983,0.1983,0.2038,0.2039,0,0,0,0,0,0,0.1974,0.1973,0.1976,0.1978,0.1977,0.1993,0.1993,0.1985,0.1983,0.1983,0.1992,0.1992,0.1987,0.1987,0.1986,0.2035,0.1983,0.1983,0.1983,0.2036,0.2038,0.204,0,0,0,0,0,0,0.1974,0.1973,0.1975,0.198,0.1981,0.1993,0.1984,0.1986,0.1996,0.199,0.199,0.2003,0.1987,0.1987,0.1988,0.2033,0.1983,0.1982,0.2034,0.2037,0.2039,0.2105,0,0,0,0,0,0,0.1973,0.1973,0.1983,0.1979,0.1981,0.1983,0.1985,0.1987,0.2003,0.2003,0.1999,0.1998,0.1987,0.1988,0.1988,0.2032,0.1982,0.2033,0.2035,0.2038,0.2101,0.2109,0.2116,0,0,0,0,0,0.1973,0.1985,0.1983,0.1985,0.1989,0.1983,0.1985,0.1992,0.2004,0.2002,0.2004,0.1998,0.2007,0.1988,0.1988,0.2033,0.2031,0.2035,0.2038,0.2097,0.2108,0.2116,0,0,0,0,0,0,0.1984,0.1985,0.1983,0.1993,0.1987,0.1983,0.2,0.2,0.2003,0.2018,0.2003,0.2001,0.203,0.2016,0.1995,0.2059,0.2025,0.2028,0.207,0.208,0.2087,0.2153,0.1982,0,0,0,0,0,0.1993,0.2003,0.1994,0.2001,0.2004,0.2004,0.2012,0.2015,0.2014,0.2016,0.2019,0.2029,0.2044,0.2045,0.2055,0.2074,0.2124,0.2108,0.2116,0.2122,0.2176,0.2272,0.2295,0.2051,0.2051,0.2051,0,0,0.1993,0.2004,0.2004,0.2006,0.2009,0.2006,0.2007,0.2024,0.2044,0.2016,0.2053,0.2057,0.2056,0.2087,0.2099,0.2078,0.2215,0.2127,0.2132,0.2184,0.2279,0.2303,0.2325,0.2053,0.2053,0.2052,0,0,0.2001,0.2012,0.2021,0.202,0.2036,0.2032,0.2036,0.2044,0.2075,0.2103,0.21,0.2132,0.2142,0.2158,0.2165,0.2221,0.2257,0.2221,0.231,0.2401,0.2423,0.2443,0.2529,0.2557,0.222,0.222,0.222,0,0.2017,0.2002,0.202,0.2029,0.2042,0.204,0.2047,0.2071,0.2085,0.2138,0.2127,0.2207,0.219,0.2253,0.2276,0.2244,0.2306,0.2268,0.2415,0.2436,0.2455,0.2539,0.2568,0.2223,0.2223,0.2223,0.2222,0,0.2009,0.2009,0.2016,0.2022,0.2047,0.2045,0.2082,0.2122,0.2166,0.2205,0.2307,0.2308,0.2357,0.2357,0.2336,0.2461,0.2463,0.2417,0.2396,0.2484,0.2566,0.2595,0.2228,0.2227,0.2226,0.2225,0,0,0.2003,0.2009,0.2003,0.2035,0.2044,0.2078,0.2127,0.2189,0.227,0.2321,0.244,0.2476,0.251,0.2523,0.2507,0.2595,0.276,0.2579,0.2582,0.2676,0.2988,0.2707,0.2711,0.2747,0.2753,0.2757,0.2987,0,0.1982,0.1995,0.2005,0.2038,0.2059,0.2104,0.2163,0.2249,0.2325,0.2438,0.2514,0.2608,0.2559,0.2607,0.2682,0.2785,0.2844,0.2704,0.2882,0.2888,0.2635,0.2737,0.2476,0.2634,0.3016,0.3021,0.3024,0,0.1967,0.198,0.2011,0.2097,0.2117,0.2156,0.2301,0.2354,0.25,0.2578,0.2685,0.274,0.2901,0.2819,0.3052,0.2977,0.2986,0.3038,0.3046,0.2792,0.2661,0.2609,0.2673,0.3074,0.307,0.3066,0.3063,0,0.199,0.2002,0.2044,0.2061,0.2143,0.2224,0.2277,0.2416,0.2505,0.2686,0.2771,0.2947,0.3041,0.3167,0.32,0.3188,0.3418,0.3397,0.314,0.3121,0.2939,0.289,0.3505,0.3504,0.3504,0.3503,0.3503,0,0.1982,0.2028,0.2071,0.2105,0.2214,0.228,0.2424,0.2507,0.2636,0.2729,0.2846,0.2931,0.3136,0.3236,0.3295,0.3297,0.3477,0.3205,0.3172,0.2944,0.2896,0.3299,0.3273,0.3512,0.351,0.3508,0.3507,0,0.2043,0.2038,0.2122,0.22,0.2243,0.2349,0.2482,0.2561,0.2683,0.2804,0.2869,0.3014,0.3155,0.3249,0.3438,0.336,0.3429,0.3318,0.3017,0.294,0.3082,0.3057,0.3231,0.3223,0.3216,0.3211,0.3206,0,0.2077,0.212,0.221,0.2243,0.2292,0.2418,0.2481,0.2598,0.2649,0.2809,0.2845,0.2993,0.3018,0.3171,0.3116,0.316,0.3225,0.2854,0.2748,0.311,0.3062,0.3046,0.3029,0.2574,0.2564,0.2557,0.2551,0,0.2148,0.219,0.2226,0.2296,0.2369,0.2442,0.2519,0.2567,0.2662,0.2719,0.2769,0.2819,0.2861,0.2761,0.2696,0.268,0.2865,0.2688,0.3216,0.2603,0.2485,0.2438,0.2446,0.2482,0.2489,0.2494,0.2497,0.25,0.2183,0.2231,0.2256,0.2316,0.237,0.24,0.2422,0.2453,0.2493,0.2466,0.2574,0.2499,0.25,0.2296,0.2216,0.2151,0.2374,0.2289,0.2318,0.2354,0.2157,0.2024,0.1902,0.1905,0.1908,0.1911,0.1913,0,0.217,0.2201,0.2253,0.2263,0.2239,0.2355,0.2368,0.2303,0.2241,0.2227,0.2181,0.1916,0.1803,0.1832,0.1621,0.1581,0.1639,0.1517,0.1602,0.1669,0.1728,0.1504,0.1075,0.1073,0.107,0.1068,0,0,0.2141,0.2156,0.2162,0.2084,0.2122,0.2098,0.2095,0.1984,0.1909,0.1738,0.1628,0.1676,0.1741,0.1376,0.1314,0.1169,0.1421,0.111,0.1778,0.1944,0.2002,0.2158,0.188,0,0,0,0,0]},{"header":{"parameterUnit":"m.s-1","parameterCategory":2,"la1":30.2991,"la2":30.254,"lo1":-89.0895,"lo2":-89.0444,"dy":0.0017,"dx":0.0017,"nx":28,"ny":28,"refTime":"2024-07-23T03:00:00:Z","depth":"2","parameterNumber":3,"parameterNumberName":"V-component_of_CURRENTS"},"data":[0,0,0,0,0,0,0,0,0,0,0,0,0,0,0,0,0,0,0,0,0,0,0,0,0,0,0,0,0,0,0,0,0,0,0,0,0,0,0,0,0,0,0,0,0,0,0,0,0,0,0,0,0,0,0,0,0,0,-0.0023,-0.0023,0,-0.0021,-0.0021,-0.0021,-0.0033,-0.0033,-0.0034,-0.0034,-0.0052,-0.0052,-0.0053,0,0,0,0,0,0,0,0,0,0,0,0,0,-0.0036,-0.0036,-0.0023,-0.0023,-0.0023,-0.0021,-0.0021,-0.0021,-0.0033,-0.0033,-0.0034,-0.0034,-0.0052,-0.0052,-0.0053,0,0,0,0,0,0,0,0,0,0,0,0,0,-0.0034,-0.0036,-0.0023,-0.0027,-0.0027,-0.0021,-0.0021,-0.0022,-0.0033,-0.0033,-0.0034,-0.0034,-0.0052,-0.0052,-0.0053,-0.0051,0,0,-0.0054,-0.0054,0,0,0,0,0,0,0,0,-0.0034,-0.0034,-0.0026,-0.0027,-0.0027,-0.0026,-0.0033,-0.0032,-0.0033,-0.0033,-0.0034,-0.0034,-0.0044,-0.0045,-0.0046,-0.0052,-0.0053,-0.0054,-0.0055,-0.0055,-0.0055,0,0,0,0,0,0,0,-0.0034,-0.0034,-0.0024,-0.0026,-0.0026,-0.0029,-0.0029,-0.0033,-0.0039,-0.0033,-0.0033,-0.003,-0.0044,-0.0046,-0.0047,-0.0053,-0.0054,-0.0055,-0.0055,-0.0055,-0.0077,-0.0077,0,0,0,0,0,0,-0.003,-0.0034,-0.0024,-0.0024,-0.0029,-0.0028,-0.0028,-0.0028,-0.0038,-0.0039,-0.003,-0.0031,-0.0045,-0.0046,-0.0048,-0.0055,-0.0055,-0.0055,-0.0056,-0.0076,-0.0077,-0.0077,0,0,0,0,0,0,-0.0031,-0.003,-0.0024,-0.0027,-0.0027,-0.0027,-0.0027,-0.0027,-0.0028,-0.0035,-0.0037,-0.0029,-0.0045,-0.0047,-0.0052,-0.0056,-0.0055,-0.0056,-0.0076,-0.0076,-0.0077,-0.0065,0,0,0,0,0,0,-0.0031,-0.003,-0.0029,-0.0027,-0.0026,-0.0016,-0.0026,-0.0027,-0.0024,-0.0025,-0.0035,-0.0037,-0.0046,-0.0051,-0.0052,-0.0057,-0.0056,-0.0076,-0.0076,-0.0077,-0.0065,-0.0065,-0.0065,0,0,0,0,0,-0.0032,-0.0028,-0.003,-0.0028,-0.0025,-0.0016,-0.0016,-0.0018,-0.0024,-0.0021,-0.0031,-0.0037,-0.0055,-0.0051,-0.0053,-0.0057,-0.0075,-0.0076,-0.0077,-0.0065,-0.0065,-0.0065,0,0,0,0,0,0,-0.0034,-0.0028,-0.003,-0.0025,-0.0019,-0.0017,-0.0013,-0.0016,-0.0021,-0.0025,-0.0035,-0.0038,-0.0046,-0.0052,-0.0047,-0.0066,-0.0068,-0.0069,-0.0059,-0.0059,-0.0059,-0.0037,-0.0057,0,0,0,0,0,-0.0033,-0.0029,-0.0023,-0.0019,-0.0014,-0.0014,-0.0011,-0.0013,-0.0016,-0.0018,-0.0026,-0.0038,-0.005,-0.0054,-0.0064,-0.0068,-0.0037,-0.0075,-0.0075,-0.0074,-0.0059,0.0008,0.0016,-0.0079,-0.0079,-0.0079,0,0,-0.0029,-0.0029,-0.0024,-0.0019,-0.0015,-0.0004,-0.0013,-0.0007,-0.0007,-0.0019,-0.0024,-0.0036,-0.0051,-0.006,-0.0065,-0.0065,-0.0037,-0.0075,-0.0075,-0.0059,0.0008,0.0018,0.0027,-0.0079,-0.0079,-0.0079,0,0,-0.002,-0.0021,-0.0013,-0.0008,-0.0002,0.0001,0.0005,0.0007,-0.0001,-0.0007,-0.002,-0.0021,-0.0046,-0.0046,-0.0053,-0.0054,-0.0038,-0.0077,-0.0057,0.0007,0.0016,0.0025,0.0056,0.0068,-0.0076,-0.0076,-0.0076,0,-0.0018,-0.0005,-0.0008,-0.0002,0.0005,0.0006,0.0018,0.0013,0.0009,0.0022,-0.0008,-0.0003,-0.0032,-0.0011,-0.0039,-0.005,-0.0025,-0.0056,0.0011,0.002,0.0029,0.0059,0.0072,-0.0076,-0.0076,-0.0076,-0.0076,0,0.0001,0.0009,0.0016,0.0026,0.0028,0.0043,0.0037,0.0049,0.0038,0.0041,0.0056,0.0028,0.0039,0.0013,-0.003,0.0009,0.0002,0.0006,0.0017,0.004,0.0069,0.0082,-0.0075,-0.0075,-0.0075,-0.0075,0,0,0.0018,0.003,0.0034,0.0047,0.0046,0.0058,0.0065,0.0093,0.014,0.0108,0.0162,0.0102,0.0102,0.0092,0.0059,0.0085,0.0127,0.0051,0.0055,0.0094,0.0248,0.0185,0.0194,0.0145,0.0147,0.015,0.0236,0,0.004,0.0064,0.0059,0.0088,0.0103,0.0108,0.0131,0.0149,0.0166,0.0219,0.0197,0.022,0.0127,0.0133,0.0141,0.0141,0.0165,0.0102,0.021,0.0213,0.0166,0.0208,0.0203,0.0276,0.0249,0.0251,0.0253,0,0.0062,0.0079,0.01,0.0142,0.0153,0.0164,0.0235,0.0252,0.0315,0.0331,0.0355,0.0347,0.0349,0.028,0.0309,0.027,0.0249,0.0248,0.0253,0.0207,0.0176,0.0252,0.0301,0.0275,0.0273,0.0271,0.027,0,0.0079,0.0113,0.0133,0.0139,0.0179,0.0197,0.0227,0.0288,0.0344,0.0404,0.0473,0.0476,0.0501,0.0483,0.0411,0.0375,0.0465,0.0433,0.037,0.0365,0.0389,0.0381,0.0484,0.0484,0.0484,0.0483,0.0483,0,0.0103,0.0127,0.0145,0.0156,0.0225,0.022,0.0307,0.0356,0.0442,0.0565,0.0522,0.0623,0.0555,0.0579,0.0494,0.0464,0.0535,0.0391,0.0397,0.0386,0.0377,0.0399,0.0388,0.0487,0.0486,0.0485,0.0485,0,0.011,0.0121,0.016,0.0204,0.0225,0.0266,0.0357,0.0451,0.0508,0.0672,0.0694,0.0752,0.0773,0.0699,0.0694,0.0592,0.0559,0.0531,0.0492,0.049,0.0395,0.0383,0.0492,0.0491,0.049,0.0489,0.0489,0,0.0114,0.0123,0.0191,0.0246,0.0263,0.0327,0.0406,0.0472,0.0597,0.0774,0.0888,0.0926,0.0984,0.0909,0.0747,0.0621,0.0591,0.0524,0.0444,0.0408,0.0403,0.0392,0.0382,0.048,0.048,0.0479,0.0479,0,0.0133,0.015,0.0203,0.0315,0.0391,0.0494,0.0613,0.0706,0.0844,0.0975,0.1157,0.1193,0.1112,0.0969,0.0755,0.0658,0.0529,0.0505,0.0549,0.0451,0.0396,0.039,0.0382,0.0474,0.0474,0.0474,0.0475,0.0475,0.0169,0.0222,0.0306,0.0418,0.0531,0.0683,0.0765,0.0913,0.1087,0.127,0.1313,0.1325,0.1173,0.0855,0.07,0.05,0.0516,0.0428,0.0431,0.0435,0.039,0.0334,0.039,0.039,0.039,0.039,0.039,0,0.0242,0.0311,0.0418,0.0577,0.0721,0.0742,0.0946,0.1028,0.1224,0.1315,0.1404,0.1208,0.1055,0.0853,0.0558,0.0404,0.0393,0.034,0.0368,0.0375,0.038,0.0333,0.0318,0.0318,0.0317,0.0316,0,0,0.03,0.0418,0.0478,0.0726,0.082,0.0983,0.1078,0.1192,0.1277,0.132,0.1279,0.1248,0.1049,0.0813,0.0626,0.0467,0.0446,0.0425,0.05,0.0562,0.0569,0.0449,0.0385,0,0,0,0,0]}],[{"header":{"parameterUnit":"m.s-1","parameterCategory":2,"la1":30.2991,"la2":30.254,"lo1":-89.0895,"lo2":-89.0444,"dy":0.0017,"dx":0.0017,"nx":28,"ny":28,"refTime":"2024-07-23T03:00:00:Z","depth":"4","parameterNumber":2,"parameterNumberName":"U-component_of_CURRENTS"},"data":[0,0,0,0,0,0,0,0,0,0,0,0,0,0,0,0,0,0,0,0,0,0,0,0,0,0,0,0,0,0,0,0,0,0,0,0,0,0,0,0,0,0,0,0,0,0,0,0,0,0,0,0,0,0,0,0,0,0,0.0915,0.0916,0,0.0954,0.0954,0.0955,0.0988,0.0988,0.0989,0.0989,0.1022,0.1022,0.1022,0,0,0,0,0,0,0,0,0,0,0,0,0,0.09,0.0899,0.0915,0.0916,0.0916,0.0954,0.0954,0.0955,0.0987,0.0988,0.0989,0.0989,0.1021,0.1022,0.1022,0,0,0,0,0,0,0,0,0,0,0,0,0,0.0917,0.0899,0.0915,0.0939,0.0941,0.0954,0.0954,0.0955,0.0987,0.0988,0.0989,0.099,0.1021,0.1022,0.1022,0.1009,0,0,0.1024,0.1024,0,0,0,0,0,0,0,0,0.0916,0.0917,0.0935,0.0937,0.094,0.0969,0.0961,0.0973,0.0987,0.0968,0.0989,0.099,0.1004,0.1006,0.1009,0.101,0.1012,0.1024,0.1024,0.1024,0.1025,0,0,0,0,0,0,0,0.0915,0.0916,0.0928,0.0935,0.0939,0.0958,0.0961,0.0963,0.0979,0.0969,0.0972,0.098,0.1005,0.1008,0.101,0.1012,0.1024,0.1024,0.1025,0.1025,0.1034,0.1034,0,0,0,0,0,0,0.0912,0.0915,0.0927,0.093,0.0932,0.0958,0.0961,0.0957,0.0979,0.0984,0.0979,0.0981,0.1007,0.1009,0.1011,0.1032,0.1024,0.1025,0.1025,0.1034,0.1034,0.1034,0,0,0,0,0,0,0.0911,0.0912,0.0926,0.0926,0.0929,0.0957,0.0952,0.0957,0.0984,0.0987,0.0991,0.1004,0.1007,0.101,0.1023,0.1032,0.1025,0.1026,0.1034,0.1034,0.1034,0.105,0,0,0,0,0,0,0.091,0.0911,0.0926,0.0925,0.0929,0.094,0.0952,0.0958,0.0987,0.0991,0.101,0.1012,0.1008,0.1022,0.1024,0.1032,0.1026,0.1034,0.1034,0.1034,0.105,0.1051,0.1051,0,0,0,0,0,0.0909,0.0914,0.0925,0.0929,0.0941,0.094,0.0944,0.0966,0.0988,0.0995,0.1008,0.1013,0.1022,0.1023,0.1024,0.1033,0.1034,0.1034,0.1034,0.1049,0.105,0.1051,0,0,0,0,0,0,0.0913,0.0918,0.0931,0.0938,0.0945,0.0947,0.0963,0.0979,0.0996,0.1009,0.1013,0.1016,0.1036,0.1027,0.1028,0.1034,0.1028,0.1028,0.104,0.1041,0.1042,0.1058,0.1027,0,0,0,0,0,0.0921,0.0925,0.0932,0.0937,0.0946,0.0961,0.0973,0.0985,0.0993,0.1004,0.1016,0.1024,0.1031,0.1032,0.1039,0.1037,0.1075,0.1042,0.1043,0.1044,0.1058,0.1137,0.1148,0.1033,0.1033,0.1033,0,0,0.0919,0.0927,0.0928,0.094,0.0951,0.0941,0.097,0.0987,0.0979,0.1003,0.101,0.1038,0.1035,0.1039,0.1046,0.1034,0.1092,0.1044,0.1045,0.1058,0.1138,0.115,0.1161,0.1033,0.1033,0.1033,0,0,0.0905,0.093,0.0927,0.0925,0.0946,0.0952,0.0962,0.0977,0.0991,0.0995,0.1019,0.1055,0.1047,0.1058,0.1057,0.1064,0.1105,0.1065,0.1072,0.1149,0.116,0.1171,0.1219,0.1234,0.1052,0.1052,0.1052,0,0.0917,0.0892,0.0926,0.0914,0.0906,0.0954,0.0933,0.0948,0.0966,0.098,0.0995,0.1043,0.1052,0.1068,0.1076,0.1069,0.1118,0.1069,0.1154,0.1165,0.1175,0.1223,0.1239,0.1053,0.1053,0.1053,0.1053,0,0.0869,0.0866,0.0862,0.0856,0.0862,0.0851,0.087,0.0894,0.0926,0.0944,0.0993,0.1028,0.1065,0.1067,0.1074,0.1144,0.1157,0.116,0.1158,0.1189,0.1236,0.1252,0.1054,0.1054,0.1053,0.1053,0,0,0.0862,0.0833,0.0834,0.0819,0.0825,0.0822,0.0825,0.084,0.0868,0.0909,0.0964,0.0985,0.1062,0.1069,0.1106,0.1165,0.1278,0.12,0.1203,0.126,0.145,0.1301,0.1304,0.1314,0.1317,0.132,0.1449,0,0.0818,0.075,0.0767,0.0729,0.0694,0.0741,0.075,0.0781,0.0821,0.0897,0.0969,0.1045,0.1042,0.1112,0.1166,0.1267,0.1325,0.1242,0.1402,0.1406,0.1281,0.1319,0.133,0.1462,0.1466,0.1468,0.147,0,0.0768,0.0721,0.0647,0.0655,0.0658,0.0671,0.0708,0.073,0.0835,0.0889,0.0979,0.1064,0.1178,0.1197,0.1348,0.1306,0.1386,0.1445,0.1452,0.1322,0.1287,0.1428,0.15,0.1498,0.1496,0.1494,0.1492,0,0.0694,0.0664,0.0594,0.0577,0.0584,0.0613,0.0665,0.0735,0.0805,0.0934,0.1028,0.1129,0.126,0.1351,0.1464,0.1439,0.1644,0.1615,0.1543,0.1533,0.1625,0.1613,0.174,0.174,0.174,0.1739,0.1739,0,0.0614,0.0577,0.057,0.0521,0.0523,0.058,0.0649,0.07,0.087,0.0968,0.1065,0.1171,0.1322,0.1446,0.1509,0.1568,0.1676,0.1558,0.1563,0.1623,0.1609,0.1636,0.1622,0.1744,0.1743,0.1742,0.1741,0,0.0528,0.0506,0.045,0.0457,0.0477,0.0499,0.0678,0.0754,0.0894,0.1045,0.1122,0.1284,0.1399,0.1503,0.1671,0.1625,0.1696,0.1699,0.1758,0.1763,0.1521,0.1506,0.1609,0.1605,0.1601,0.1598,0.1596,0,0.0471,0.0402,0.0388,0.0404,0.0424,0.0497,0.0575,0.0745,0.0839,0.1079,0.1154,0.134,0.1415,0.1533,0.1614,0.169,0.1679,0.1692,0.1588,0.1516,0.1512,0.1502,0.1492,0.1591,0.159,0.1589,0.1588,0,0.0339,0.0336,0.0303,0.033,0.04,0.0454,0.0584,0.0665,0.087,0.102,0.1181,0.1274,0.1395,0.1468,0.1549,0.1595,0.1656,0.1655,0.1662,0.1564,0.1495,0.1492,0.1486,0.1576,0.1578,0.1579,0.1579,0,0.0287,0.0255,0.0241,0.0285,0.0341,0.039,0.0472,0.0625,0.0755,0.1026,0.1071,0.1247,0.1395,0.1423,0.1491,0.1516,0.1477,0.142,0.1437,0.1451,0.133,0.1215,0.1228,0,0,0,0,0,0.0235,0.0207,0.0217,0.0253,0.0308,0.0349,0.0464,0.0569,0.0761,0.0854,0.0979,0.1085,0.12,0.1279,0.1271,0.1362,0.1445,0.134,0.1377,0.151,0.1524,0.139,0,0,0,0,0,0,0.0215,0.0187,0.0186,0.0203,0.0249,0.0309,0.0377,0.0511,0.057,0.0773,0.0847,0.0999,0.112,0.1212,0.1253,0.1272,0.1263,0.1451,0.1447,0.1502,0.1515,0.1526,0.1393,0,0,0,0,0]},{"header":{"parameterUnit":"m.s-1","parameterCategory":2,"la1":30.2991,"la2":30.254,"lo1":-89.0895,"lo2":-89.0444,"dy":0.0017,"dx":0.0017,"nx":28,"ny":28,"refTime":"2024-07-23T03:00:00:Z","depth":"4","parameterNumber":3,"parameterNumberName":"V-component_of_CURRENTS"},"data":[0,0,0,0,0,0,0,0,0,0,0,0,0,0,0,0,0,0,0,0,0,0,0,0,0,0,0,0,0,0,0,0,0,0,0,0,0,0,0,0,0,0,0,0,0,0,0,0,0,0,0,0,0,0,0,0,0,0,0.0055,0.0055,0,0.0057,0.0057,0.0057,0.0049,0.0049,0.0049,0.0049,0.005,0.005,0.005,0,0,0,0,0,0,0,0,0,0,0,0,0,0.0041,0.0041,0.0055,0.0055,0.0056,0.0057,0.0057,0.0057,0.0049,0.0049,0.0049,0.0049,0.005,0.005,0.005,0,0,0,0,0,0,0,0,0,0,0,0,0,0.0045,0.0042,0.0055,0.0052,0.0052,0.0057,0.0057,0.0057,0.0049,0.0049,0.0049,0.0049,0.005,0.005,0.005,0.0057,0,0,0.0051,0.0051,0,0,0,0,0,0,0,0,0.0045,0.0045,0.0053,0.0053,0.0052,0.0053,0.0052,0.0057,0.0049,0.005,0.0049,0.0048,0.0052,0.0052,0.0052,0.0057,0.0057,0.0051,0.0051,0.0052,0.0052,0,0,0,0,0,0,0,0.0044,0.0045,0.0055,0.0053,0.0053,0.0049,0.005,0.0053,0.0051,0.005,0.0049,0.0051,0.0051,0.0051,0.0052,0.0057,0.0051,0.0051,0.0052,0.0052,0.0074,0.0075,0,0,0,0,0,0,0.0046,0.0045,0.0055,0.0055,0.0049,0.005,0.005,0.0053,0.0051,0.0051,0.0051,0.005,0.0051,0.0051,0.0052,0.0093,0.0052,0.0052,0.0052,0.0074,0.0074,0.0075,0,0,0,0,0,0,0.0046,0.0047,0.0055,0.0051,0.0051,0.005,0.0053,0.0053,0.0053,0.0052,0.0052,0.0052,0.0051,0.0051,0.0059,0.0091,0.0052,0.0052,0.0073,0.0074,0.0075,0.0153,0,0,0,0,0,0,0.0045,0.0047,0.0048,0.0051,0.0052,0.0065,0.0054,0.0053,0.0055,0.0054,0.0053,0.0053,0.0051,0.0059,0.0059,0.0091,0.0052,0.0073,0.0074,0.0074,0.015,0.0156,0.0162,0,0,0,0,0,0.0045,0.0052,0.0048,0.005,0.0054,0.0066,0.0067,0.0064,0.0055,0.0062,0.0058,0.0053,0.0064,0.0059,0.006,0.0092,0.0072,0.0073,0.0074,0.0147,0.0155,0.0161,0,0,0,0,0,0,0.0049,0.0052,0.0048,0.0056,0.0063,0.0065,0.0071,0.0066,0.0068,0.0064,0.0059,0.006,0.0078,0.0067,0.0061,0.0098,0.0067,0.0068,0.0122,0.0129,0.0135,0.0146,0.0053,0,0,0,0,0,0.005,0.0054,0.0059,0.0065,0.007,0.0069,0.0072,0.007,0.0072,0.0072,0.0075,0.0074,0.0083,0.009,0.0091,0.0112,0.008,0.0131,0.0137,0.0142,0.0149,0.0106,0.0108,0.0078,0.0078,0.0078,0,0,0.0055,0.0055,0.0059,0.0066,0.007,0.0098,0.007,0.0078,0.011,0.0072,0.0111,0.0094,0.009,0.0116,0.0124,0.0113,0.0136,0.0143,0.0148,0.0152,0.0107,0.011,0.0112,0.0079,0.0079,0.0079,0,0,0.0076,0.0068,0.0083,0.0096,0.0103,0.0109,0.0113,0.012,0.0131,0.0155,0.014,0.0137,0.0154,0.016,0.0164,0.0199,0.0164,0.02,0.0249,0.0208,0.021,0.0212,0.0188,0.0187,0.0209,0.0209,0.0209,0,0.0079,0.0109,0.0091,0.0118,0.0143,0.0121,0.0163,0.0173,0.0183,0.0188,0.0178,0.0181,0.018,0.0207,0.0228,0.0217,0.0186,0.0228,0.0216,0.0217,0.0217,0.0193,0.019,0.0213,0.0213,0.0212,0.0212,0,0.0126,0.0151,0.0164,0.0197,0.0216,0.0245,0.0263,0.0276,0.0278,0.0274,0.0286,0.0272,0.027,0.0275,0.0272,0.0282,0.0258,0.0225,0.0202,0.0225,0.0198,0.0194,0.0219,0.0217,0.0216,0.0215,0,0,0.013,0.0188,0.0193,0.0232,0.0266,0.0288,0.0337,0.0367,0.0375,0.0378,0.0398,0.0409,0.0367,0.0368,0.0351,0.0328,0.0317,0.0289,0.0285,0.0273,0.0234,0.0231,0.0226,0.0276,0.0275,0.0275,0.022,0,0.0177,0.0255,0.0269,0.0351,0.04,0.0406,0.0453,0.0466,0.0454,0.0461,0.0439,0.0445,0.0415,0.0413,0.0385,0.0326,0.0308,0.0336,0.0207,0.0204,0.0203,0.0222,0.0273,0.0217,0.0216,0.0215,0.0215,0,0.0222,0.0274,0.0372,0.0441,0.046,0.0506,0.0549,0.0581,0.057,0.0558,0.0534,0.0498,0.049,0.0453,0.0365,0.038,0.0323,0.0273,0.0269,0.0235,0.0193,0.0182,0.0207,0.0208,0.0208,0.0209,0.0209,0,0.0252,0.0339,0.0427,0.0459,0.0535,0.0577,0.0611,0.0609,0.0637,0.0617,0.0612,0.0559,0.0552,0.0462,0.037,0.0362,0.0258,0.0226,0.0173,0.0172,0.0156,0.0154,0.0167,0.0167,0.0167,0.0167,0.0167,0,0.0301,0.0364,0.0454,0.0505,0.0588,0.0626,0.0683,0.0686,0.0709,0.0718,0.0667,0.0655,0.055,0.0476,0.0382,0.0269,0.0261,0.0189,0.0157,0.0192,0.0195,0.0154,0.0153,0.0165,0.0165,0.0166,0.0166,0,0.032,0.0381,0.048,0.0581,0.061,0.0671,0.0755,0.0785,0.0789,0.0804,0.0815,0.0744,0.0635,0.0522,0.0376,0.0294,0.0181,0.0146,0.0212,0.0183,0.0122,0.0125,0.0077,0.0077,0.0076,0.0076,0.0075,0,0.034,0.04,0.0526,0.058,0.0634,0.0725,0.0781,0.0829,0.0851,0.084,0.0848,0.0775,0.0702,0.0502,0.0374,0.0201,0.0175,0.012,0.0111,0.0138,0.0112,0.0117,0.0121,0.0075,0.0075,0.0074,0.0074,0,0.037,0.0419,0.0491,0.0608,0.0692,0.0779,0.0854,0.0882,0.0913,0.0927,0.0868,0.0771,0.0653,0.0495,0.0374,0.0243,0.0152,0.0114,0.0114,0.0105,0.0134,0.011,0.0115,0.0073,0.0073,0.0073,0.0073,0,0.0373,0.0423,0.0516,0.0618,0.0709,0.0789,0.0842,0.088,0.0917,0.0903,0.0878,0.0756,0.0695,0.0517,0.0394,0.0278,0.0239,0.0189,0.0184,0.0185,0.0229,0.0284,0.0247,0,0,0,0,0,0.0377,0.0432,0.0518,0.0624,0.0715,0.078,0.0862,0.0908,0.0932,0.0897,0.0893,0.0779,0.0599,0.0523,0.0406,0.0374,0.0215,0.0231,0.0154,0.0063,0.0065,0.0098,0,0,0,0,0,0,0.0375,0.0452,0.0506,0.0602,0.0677,0.0782,0.084,0.0874,0.0852,0.0856,0.0766,0.0738,0.057,0.0665,0.0398,0.0365,0.0296,0.0158,0.0155,0.0062,0.0064,0.0066,0.01,0,0,0,0,0]}]]